Regional Weather Roundup
Issued by NWS

Home | Current Version | Previous Version | Graphics & Text | Print | Product List | Glossary On
Versions: 1 2 3 4 5 6 7 8 9 10 11 12 13 14 15 16 17 18 19 20 21 22 23 24 25 26 27 28 29 30 31 32 33 34 35 36 37 38 39 40 41 42 43 44 45 46 47 48 49 50
000
ASUS43 KOAX 061910
RWRNE

WEATHER ROUNDUP FOR NEBRASKA
NATIONAL WEATHER SERVICE OMAHA NE
200 PM CDT WED MAY 06 2015

NOTES: SATELLITE DATA IS BEING USED TO AUGMENT CLOUD COVER ABOVE
       12000 FEET.
       "FAIR" INDICATES FEW OR NO CLOUDS BELOW 12,000 FEET WITH NO
       SIGNIFICANT WEATHER AND/OR OBSTRUCTIONS TO VISIBILITY.

  * THESE STATIONS DO NOT REPORT WEATHER SUCH AS RAIN...SNOW OR FOG.

NEZ001>004-019>022-054>056-062000-
NEBRASKA PANHANDLE

CITY           SKY/WX    TMP DP  RH WIND       PRES   REMARKS
SCOTTSBLUFF    CLOUDY    62  51  67 NE6       29.64F
ALLIANCE       CLOUDY    61  52  72 SE9       29.64F
CHADRON        CLOUDY    62  53  72 S12       29.63F
KIMBALL        RAIN      55  54  96 N10       29.64S
SIDNEY         LGT RAIN  56  54  93 NE10      29.63F FOG
$$

NEZ057>060-069>072-079>082-062000-
SOUTHWEST NEBRASKA

CITY           SKY/WX    TMP DP  RH WIND       PRES   REMARKS
NORTH PLATTE   CLOUDY    66  57  72 S15       29.64F
IMPERIAL       CLOUDY    61  53  75 SE16      29.63F
LEXINGTON      CLOUDY    64  58  79 S15G22    29.69F
MCCOOK         CLOUDY    66  53  63 S16       29.65F
OGALLALA       CLOUDY    63  53  70 SE14      29.64F
$$

NEZ005>010-023>029-035>040-094-062000-
NORTH CENTRAL NEBRASKA

CITY           SKY/WX    TMP DP  RH WIND       PRES   REMARKS
VALENTINE      LGT RAIN  61  58  90 S14       29.66S
AINSWORTH      LGT RAIN  63  60  93 S14       29.68S
BROKEN BOW     CLOUDY    68  56  65 S22       29.68F
O`NEILL        CLOUDY    68  62  81 SE20G25   29.71F
ORD            PTSUNNY   68  57  68 S20G30    29.69F
THEDFORD       CLOUDY    67  57  70 SE15      29.66F
$$

NEZ041-046>049-061>064-073>077-083>087-062000-
SOUTH CENTRAL NEBRASKA

CITY           SKY/WX    TMP DP  RH WIND       PRES   REMARKS
GRAND ISLAND   LGT RAIN  62  60  93 S15       29.75F
AURORA         CLOUDY    63  63  99 S13G23    29.76F
HASTINGS       CLOUDY    65  61  87 S13G22    29.73F
HEBRON         CLOUDY    69  61  75 S18       29.77F
HOLDREGE       CLOUDY    65  57  75 S17       29.69F
YORK           PTSUNNY   63  63 100 S18       29.78S
$$

NEZ011>018-030>034-042>045-062000-
NORTHEAST NEBRASKA

CITY           SKY/WX    TMP DP  RH WIND       PRES   REMARKS
NORFOLK        CLOUDY    66  60  81 S23G30    29.76S
ALBION         CLOUDY    63  60  91 S21G28    29.75R
BLAIR          LGT RAIN  65  61  87 S15G21    29.83F
COLUMBUS *     CLOUDY    63  57  82 S17G23    29.80S
FREMONT        LGT RAIN  65  63  93 S12       29.82F
TEKAMAH        HVY RAIN  66  63  90 S29       29.83R FOG
WAYNE          CLOUDY    68  60  76 S22G30    29.78S
$$

NEZ050>053-065>068-078-088>093-062000-
SOUTHEAST NEBRASKA

CITY           SKY/WX    TMP DP  RH WIND       PRES   REMARKS
LINCOLN        CLOUDY    67  61  81 S20G29    29.80F
OMAHA EPPLEY   CLOUDY    69  62  78 S22       29.83F THUNDER
BEATRICE       CLOUDY    66  60  79 SE17G28   29.82S
FALLS CITY     CLOUDY    68  62  81 SE20G26   29.88F
NEBRASKA CITY  CLOUDY    69  58  67 S25G36    29.87S
PLATTSMOUTH    CLOUDY    68  59  73 SE23G30   29.85S
$$

NEZ044-045-051>053-067-062000-
OMAHA AREA

CITY           SKY/WX    TMP DP  RH WIND       PRES   REMARKS
OMAHA EPPLEY   CLOUDY    69  62  78 S22       29.83F THUNDER
BLAIR          LGT RAIN  65  61  87 S15G21    29.83F
FREMONT        LGT RAIN  65  63  93 S12       29.82F
MILLARD        HVY RAIN  66  63  88 S12       29.84S
OFFUTT AFB     LGT RAIN  69  62  79 SE20G30   29.83F
PLATTSMOUTH    CLOUDY    68  59  73 SE23G30   29.85S
$$



USA.gov is the U.S. government's official web portal to all federal, state and local government web resources and services.